Location: Sonsoto
(40.9500°N, 4.0333°W)
Time: 11:34:53
(UTC+00:00)

Daily predictions for brighter satellites

Satellite Brightness Start Highest point End
(mag) Time Altitude Azimuth Time Altitude Azimuth Time Altitude Azimuth
Cosmos 1602 4.4 17:14:54 10° NNE 17:18:23 32° ENE 17:21:53 10° SE
Cosmos 540 Rocket 3.7 17:13:57 10° S 17:18:51 50° ESE 17:23:47 10° NNE
Cosmos 2034 Rocket 4.0 17:14:06 10° S 17:20:16 89° E 17:26:27 10° N
ARGOS 4.4 17:20:27 10° ESE 17:24:08 19° ENE 17:27:49 10° NNE
COSMOS 2406 3.3 17:18:42 10° S 17:24:23 67° ESE 17:30:04 10° NNE
Cosmos 1833 Rocket 2.7 17:20:04 10° SSW 17:25:41 88° ESE 17:31:21 10° NNE
Cosmos 1782 3.4 17:23:55 10° SSE 17:27:36 37° E 17:31:18 10° NNE
COSMO-SKYMED 1 4.0 17:24:53 10° NE 17:28:00 19° E 17:31:06 10° SE
ATLAS 5 CENTAUR R/B 4.0 17:24:58 10° NW 17:30:09 17° N 17:32:58 10° NE
SL-08 R/B 4.4 17:26:56 10° N 17:31:26 46° WNW 17:35:50 10° SW
CZ-2C R/B 3.7 17:30:25 10° S 17:31:47 11° SSE 17:33:09 10° SE
Cosmos 468 Rocket 4.3 17:28:18 10° SSW 17:33:25 70° WNW 17:38:37 10° NNE
Cosmos 1633 Rocket 4.3 17:33:03 10° NNE 17:36:14 20° ENE 17:39:26 10° ESE
CZ-2D R/B 3.8 17:35:30 10° SE 17:39:01 35° ENE 17:42:32 10° N
Cosmos 1898 Rocket 3.4 17:35:04 10° NNW 17:40:21 81° ENE 17:45:32 10° SSE
Cosmos 1634 Rocket 4.1 17:34:45 10° S 17:40:57 61° E 17:47:11 10° NNE
Cosmos 1340 Rocket 3.6 17:37:17 10° NNW 17:41:18 57° W 17:45:17 10° S
COSMOS 2455 2.9 17:35:36 10° SSW 17:41:33 69° ESE 17:47:33 10° NE
PAYLOAD B 4.4 17:38:07 10° SE 17:43:28 49° ENE 17:48:51 10° N
CZ-2C R/B 3.8 17:40:01 10° S 17:44:50 52° W 17:49:32 10° NNW
CZ-4B R/B 3.7 17:41:14 10° SE 17:46:06 35° ENE 17:50:55 10° N
Cosmos 1151 Rocket 3.7 17:42:45 10° SSE 17:46:37 33° E 17:50:32 10° NNE
CZ-2C R/B 3.2 17:42:52 10° NNE 17:47:35 35° E 17:52:17 10° SSE
Cosmos 1500 3.4 17:44:20 10° N 17:47:57 45° E 17:51:31 10° SSE
Cosmos 2026 Rocket 3.9 17:43:34 10° N 17:49:41 69° E 17:55:42 10° SSE
Lacrosse 5 rocket 3.2 17:47:45 10° N 17:49:44 13° NNE 17:50:36 13° NE
Okean O Rocket 2.6 17:46:32 10° ESE 17:50:12 26° ENE 17:53:53 10° NNE
Cosmos 1743 Rocket 4.1 17:46:33 10° NNW 17:50:49 61° W 17:55:04 10° S
Cosmos 2360 4.2 17:47:25 10° NNW 17:53:11 84° ENE 17:58:54 10° SSE
Cosmos 2195 Rocket 4.5 17:47:01 10° N 17:53:12 86° E 17:59:26 10° S
Meteor 2-14 Rocket 4.4 17:48:52 10° N 17:54:58 70° E 18:01:00 10° SSE
GPS 2-04 Rocket1 3.9 17:54:09 10° WSW 17:57:59 38° S 18:01:28 12° ESE
H-2A R/B 2.0 17:56:59 10° SSE 18:02:07 64° ENE 18:07:07 10° N
Cosmos 1666 Rocket 3.8 17:58:00 10° N 18:02:16 44° ENE 18:06:28 10° SSE
Meteor 1-26 Rocket 4.4 17:56:41 10° S 18:02:38 90° WSW 18:08:43 10° N
USA 276 3.3 18:00:55 10° WNW 18:03:53 41° SW 18:06:51 10° SSE
Cosmos 1328 Rocket 4.1 18:00:03 10° SSE 18:04:08 37° E 18:07:30 14° NNE
USA 267 4.1 18:01:04 11° NE 18:06:56 42° NNW 18:12:59 10° W
PSLV R/B 3.6 18:04:05 10° SSE 18:07:46 84° W 18:11:30 10° NNW
Landsat 5 3.9 18:08:42 23° NE 18:10:38 36° E 18:14:17 10° SSE
Cosmos 841 Rocket 3.8 18:07:50 10° SSW 18:12:58 68° WNW 18:18:06 10° NNE
SKYMED 2 3.5 18:12:01 10° NNE 18:16:18 64° E 18:20:35 10° S
ATLAS CENTAUR R/B 4.0 18:07:50 10° WSW 18:17:16 42° NW 18:20:44 15° NNE
Cosmos 1666 2.6 18:13:46 10° N 18:17:25 56° E 18:21:04 10° SSE
MOS 1-B 4.3 18:12:03 10° SSE 18:17:49 88° ENE 18:23:37 10° NNW
Meteor 2-21 Rocket 4.3 18:12:00 10° N 18:18:08 79° E 18:24:10 10° S
Cosmos 1937 Rocket 4.0 18:14:56 10° NNW 18:20:11 62° WSW 18:25:24 10° S
SL-24 R/B - RUBIN 2 3.4 18:22:17 10° NNW 18:26:45 82° NE 18:31:03 10° SE
Sich 1 4.1 18:24:44 10° NNW 18:28:52 47° W 18:33:00 10° SSW
Cosmos 2322 Rocket 3.7 18:25:06 10° N 18:27:49 19° NNE 18:27:49 19° NNE
Cosmos 1697 Rocket 3.9 18:25:54 10° NW 18:31:10 43° WSW 18:36:25 10° S
Cosmos 372 Rocket 4.1 18:25:59 10° NNW 18:31:14 79° WSW 18:36:27 10° SSE
SL-08 RB Rocket 3.8 18:28:49 10° SSE 18:33:18 50° ENE 18:37:46 10° N
Cosmos 1812 3.4 18:30:16 10° SSW 18:34:02 55° W 18:37:47 10° N
Cosmos 1980 Rocket 2.3 18:30:03 10° NNW 18:35:43 80° WSW 18:41:20 10° SSE
Meteor 1-14 Rocket 4.4 18:31:34 10° N 18:37:26 83° W 18:43:23 10° S
Cosmos 2369 4.3 18:32:07 10° NNW 18:37:45 60° WSW 18:43:20 10° S
ISS -3.0 18:35:20 10° NW 18:37:58 43° N 18:37:58 43° N
USA 234 3.5 18:32:26 10° SE 18:38:58 72° SW 18:45:31 10° NW
deb Chang Zheng 4 3.6 18:35:02 10° S 18:39:19 81° WSW 18:43:39 10° NNW
Meteor 1-5 Rocket 4.3 18:35:53 10° N 18:41:54 85° W 18:47:47 10° S
Cosmos 1515 Rocket 3.6 18:41:56 10° S 18:46:03 58° ESE 18:46:03 58° ESE
CZ-4C R/B 2.9 18:38:56 10° NNW 18:46:23 76° NE 18:54:57 10° SE
SL-16 R/B 3.0 18:42:09 10° N 18:46:11 33° NNE 18:46:11 33° NNE
Cosmos 2082 Rocket 3.2 18:42:17 10° SW 18:47:41 44° WNW 18:52:36 13° N
Cosmos 44 Rocket 3.8 18:49:24 10° NNW 18:53:10 42° NNE 18:53:10 42° NNE
Cosmos 2278 4.0 18:56:09 10° NNW 19:01:50 69° WSW 19:07:27 10° SSE
ARGOS 3.7 18:58:34 10° S 19:03:54 60° W 19:09:15 10° NNW
COSMO-SKYMED 1 4.0 19:00:37 12° N 19:04:16 37° WNW 19:08:15 10° SW
Meteor 1-27 Rocket 3.7 19:02:02 10° S 19:06:41 57° SE 19:06:41 57° SE
Cosmos 921 Rocket 3.3 19:05:37 10° SSW 19:09:34 61° W 19:09:34 61° W
Cosmos 2298 Rocket 4.1 19:04:58 10° NNW 19:09:28 61° N 19:09:28 61° N
DMSP B5D2-2 3.9 19:10:16 81° ENE 19:10:24 82° ESE 19:15:38 10° SSW
CZ-2C R/B 3.1 19:07:08 10° SW 19:09:35 24° SSW 19:09:35 24° SSW
IRAS Rocket 4.2 19:13:22 63° SSE 19:13:22 63° SSE 19:18:11 10° S
NOAA 15 4.5 19:08:12 10° SSE 19:13:30 90° SW 19:18:49 10° NNW
Cosmos 2266 Rocket 4.0 19:10:25 10° N 19:16:50 83° W 19:23:15 10° S
GEOS 3 Rocket 4.2 19:19:06 46° N 19:19:06 46° N 19:22:51 10° NNW
Meteor 2-15 Rocket 4.5 19:11:39 10° SSW 19:17:46 78° W 19:21:43 23° N
Cosmos 1818 3.6 19:14:45 10° NNW 19:19:32 68° NNW 19:19:32 68° NNW
Okean O Rocket 3.5 19:22:32 10° SSW 19:26:25 29° W 19:30:20 10° NW
CZ-2C R/B 4.4 19:23:23 10° N 19:27:45 28° WNW 19:32:05 10° SW
Lacrosse 5 rocket 3.9 19:25:35 10° NW 19:26:13 14° NW 19:26:13 14° NW
BREEZE-M DEB (TANK) 4.3 19:15:43 10° SW 19:43:31 82° NW 19:44:57 64° NE
Meteor 1-11 Rocket 4.4 19:42:24 10° NNW 19:47:50 52° W 19:53:23 10° SSW
Cosmos 2322 Rocket 4.4 20:08:15 10° NNW 20:09:40 18° NNW 20:09:40 18° NNW
SL-16 R/B 4.5 20:26:24 10° NW 20:28:07 19° NW 20:28:07 19° NW
